Location: Unspecified
(0.0000°N, 0.0000°E)
Time: 06:01:18
(UTC+00:00)

Courier 1B - Visible Passes

Search period start: 01 November 2014 00:00
Search period end: 11 November 2014 00:00
Orbit: 963 x 1209 km, 28.3° (Epoch: 30 October)

Date Brightness Start Highest point End Pass type
(mag) Time Alt. Az. Time Alt. Az. Time Alt. Az.
01 Nov 9.3 02:58:50 22° NE 02:58:50 22° NE 03:01:01 10° ENE visible
01 Nov 8.8 04:45:46 18° WNW 04:48:38 23° NNW 04:53:55 10° NNE visible
02 Nov 8.6 03:56:02 29° N 03:56:02 29° N 04:00:37 10° NNE visible
03 Nov 9.7 03:06:13 14° NE 03:06:13 14° NE 03:07:12 10° NE visible
03 Nov 9.3 04:53:09 11° NW 04:55:41 13° NNW 04:58:35 10° N visible
04 Nov 9.2 04:03:15 16° N 04:03:15 16° N 04:05:52 10° NNE visible
07 Nov 10.1 20:35:35 10° S 20:35:36 10° S 20:35:36 10° S visible
09 Nov 9.8 20:39:34 10° SSW 20:41:38 15° S 20:41:38 15° S visible
10 Nov 9.6 19:46:29 10° SSW 19:50:22 15° SSE 19:51:14 15° SSE visible
